This is the latest recevied weather packets stored in our database for station/object WA1TYB-13. If no packets are shown the sender has not sent any weather packets the latest 10 day(s).
| Time | Temp. | Humidity | Pressure | Rain* | Wind** | Luminosity | Snow |
|---|---|---|---|---|---|---|---|
| 1788473925 | 25° C | 16% | 1010.3 hPa | 0 mm | - | 161 W/m² | - |
| 1788473624 | 25.56° C | 14% | 1010.5 hPa | 0 mm | - | 300 W/m² | - |
| 1788473322 | 25° C | 13% | 1010.6 hPa | 0 mm | - | 530 W/m² | - |
| 1788473017 | 25° C | 16% | 1010.5 hPa | 0 mm | - | 399 W/m² | - |
| 1788472715 | 24.44° C | 15% | 1010.6 hPa | 0 mm | - | 687 W/m² | - |
| 1788472412 | 25° C | 15% | 1010.4 hPa | 0 mm | - | 208 W/m² | - |
| 1788472110 | 25° C | 14% | 1010.5 hPa | 0 mm | - | 197 W/m² | - |
| 1788471814 | 24.44° C | 15% | 1010.4 hPa | 0 mm | - | 194 W/m² | - |
| 1788471500 | 24.44° C | 15% | 1010.7 hPa | 0 mm | - | 507 W/m² | - |
| 1788471195 | 23.89° C | 16% | 1010.8 hPa | 0 mm | - | 681 W/m² | - |
| 1788470892 | 24.44° C | 15% | 1010.7 hPa | 0 mm | - | 195 W/m² | - |
| 1788470588 | 24.44° C | 15% | 1010.6 hPa | 0 mm | - | 567 W/m² | - |
| 1788470287 | 24.44° C | 16% | 1010.7 hPa | 0 mm | - | 444 W/m² | - |
| 1788469983 | 23.89° C | 15% | 1010.7 hPa | 0 mm | - | 370 W/m² | - |
| 1788469679 | 25° C | 16% | 1010.6 hPa | 0 mm | - | 767 W/m² | - |
| 1788469374 | 25° C | 15% | 1010.6 hPa | 0 mm | - | 765 W/m² | - |
| 1788469074 | 25° C | 15% | 1010.8 hPa | 0 mm | - | 255 W/m² | - |
| 1788468773 | 25° C | 15% | 1010.7 hPa | 0 mm | - | 761 W/m² | - |
| 1788468469 | 24.44° C | 15% | 1010.6 hPa | 0 mm | - | 698 W/m² | - |
| 1788468165 | 24.44° C | 14% | 1010.6 hPa | 0 mm | - | 251 W/m² | - |
| 1788467861 | 25° C | 14% | 1010.5 hPa | 0 mm | - | 644 W/m² | - |
| 1788467557 | 24.44° C | 14% | 1010.8 hPa | 0 mm | - | 634 W/m² | - |
| 1788467255 | 24.44° C | 15% | 1010.8 hPa | 0 mm | - | 715 W/m² | - |
| 1788466952 | 24.44° C | 15% | 1011 hPa | 0 mm | - | 756 W/m² | - |
| 1788466651 | 23.89° C | 15% | 1010.8 hPa | 0 mm | - | 742 W/m² | - |
* Rain latest hour (hover to see other rain measurements)
** Current wind speed in m/s (hover to see current wind gust speed)